Regional Weather Roundup
Issued by NWS Green Bay, WI

Home | Current Version | Previous Version | Graphics & Text | Print | Product List | Glossary Off
Versions: 1 2 3 4 5 6 7 8 9 10 11 12 13 14 15 16 17 18 19 20 21 22 23 24 25 26 27 28 29 30 31 32 33 34 35 36 37 38 39 40 41 42 43 44 45 46 47 48 49 50

000
ASUS43 KGRB 161701
RWRGRB

NORTH-CENTRAL AND NORTHEAST WISCONSIN REGIONAL WEATHER ROUNDUP
NATIONAL WEATHER SERVICE GREEN BAY WI
1200 PM CDT MON OCT 16 2017

WIZ005-009-010>012-018-019-161800-
NORTH CENTRAL WISCONSIN

CITY           SKY/WX    TMP DP  RH WIND       PRES   REMARKS
IRONWOOD       SUNNY     53  35  50 W14       30.13F
MANITOWISH WTR NOT AVBL
ARBOR VITAE    NOT AVBL
EAGLE RIVER    NOT AVBL
LAND O LAKES   NOT AVBL
RHINELANDER    SUNNY     51  37  58 W15G21    30.18F
PHILLIPS       NOT AVBL
ANTIGO         NOT AVBL
TOMAHAWK       NOT AVBL
MERRILL        NOT AVBL
$$

WIZ013-073-161800-
NORTHEAST WISCONSIN

CITY           SKY/WX    TMP DP  RH WIND       PRES   REMARKS
IRON MOUNTAIN  SUNNY     53  33  46 VRB6G17   30.15F
MARINETTE      NOT AVBL
$$

WIZ017-030-035>037-045-161800-
CENTRAL WISCONSIN

CITY           SKY/WX    TMP DP  RH WIND       PRES   REMARKS
MEDFORD        NOT AVBL
WAUSAU         SUNNY     53  37  54 SW12      30.20F
MOSINEE        MOSUNNY   54  39  58 SW13      30.23F
MARSHFIELD     SUNNY     54  36  50 W10       30.22F
WISC RAPIDS    SUNNY     55  39  54 SW5       30.25F
STEVENS POINT  NOT AVBL
WAUPACA        NOT AVBL
SHAWANO        NOT AVBL
CLINTONVILLE   NOT AVBL
WAUTOMA        SUNNY     56  38  50 S9        30.25F
$$

WIZ038-039-048-051-161800-
FOX VALLEY

CITY           SKY/WX    TMP DP  RH WIND       PRES   REMARKS
NWS GREEN BAY  SUNNY     53  40  61 SW14      30.24F
APPLETON       SUNNY     54  36  50 SW9       30.24F
OSHKOSH        SUNNY     54  37  52 SW8       30.25F
FOND DU LAC    SUNNY     56  36  47 SW10      30.26F
$$

WIZ022-050-052-161800-
EAST CENTRAL WISCONSIN

CITY           SKY/WX    TMP DP  RH WIND       PRES   REMARKS
EPHRAIM        NOT AVBL
WASHINGTON ISL NOT AVBL
STURGEON BAY   SUNNY     52  37  56 W13       30.23F
MANITOWOC      SUNNY     54  38  54 SW10      30.26F
SHEBOYGAN      SUNNY     55  39  54 SW7       30.26S
$$

LMZ563-521-522-541>543-161800-
LAKESHORE

STATION/POSITION TIME  TEMP    WIND        PRES    VSBY  WAVE
                       AIR SEA DIR/SP/G                  HT/PER
                 (UTC) (F)     (DEG/KT/KT) (MB)    (MI)  (FT/S)
SHEBOYGAN LKSHOR 1600   52     230/  7/  9 1025.0F
KEWAUNEE LKSHORE 1630   52     280/  9/ 12 1023.4F
NORTHPORT PIER   1640   52     260/  7/ 12 1022.7F
S GREEN BAY BUOY 1630   50 58  220/ 12/ 14 1023.5F
SISTER BAY LKSHO 1619   55     270/ 13/ 15   N/A
MENOMINEE LKSHOR 1624   50     230/ 12/ 15 1023.1
$$




USA.gov is the U.S. government's official web portal to all federal, state and local government web resources and services.